Find Starlink 3189

NORAD ID: 51464 Int'l Des: 2022-010 Owner: SPXS Country: US Constellation: starlink operational
LEOCIRCULAR

实时位置

正在加载3D地球...

关于 Starlink 3189

正在加载描述...

即将过境

Passes for default location (London). Set your location on the main map for personalized predictions.

高度历史

Loading altitude history...

两行轨道根数

1 51464U 22010J 26121.02226705 .00000066 00000-0 22267-4 0 9996
2 51464 53.2200 44.1931 0001664 93.2350 266.8832 15.08835743235228
Epoch: May 1, 2026 • Age: 15 hours

当前状态

高度 543.1 km
速度 7.60 km/s
星下点 43.56°N, 86.22°E
发射日期 Feb 3, 2022
运行时间 4.2 years
类型 internet

技术详情

分类 Payload
质量 297.00 kg
干质量 275.00 kg
总质量 297.00 kg
长度 0.20 m
直径 2.80 m
跨度 9.00 m
形状 Box + pan
制造商 SPXS
平台类型 Starlink
阶段状态 In Orbit
所有者/国家 SPXS/US

Most Searched